DL3NBY Weather Reports


time (UTC)temp
C
wind
direction
speed
KPH
gust
KPH
rain 1hr
cm
rain 24hr
cm
rain mn
cm
humidity
%
barometer
mb
20260506103034 17 315 0.0 4.8 0.00 1.32 0.10 80 1004.8
20260506101028 16 272 3.2 11.3 0.00 1.32 0.10 80 1004.8
20260506100025 16 241 4.8 14.5 0.00 1.32 0.10 82 1004.9
20260506095025 16 317 1.6 12.9 0.00 1.32 0.10 80 1004.9
20260506092113 16 241 6.4 14.5 0.00 1.32 0.10 84 1005.2
20260506091110 15 191 4.8 9.7 0.00 1.32 0.10 85 1005.0
20260506090107 15 242 0.0 6.4 0.00 1.32 0.10 91 1005.1
20260506085103 15 0.0 3.2 0.00 1.32 0.10 92 1005.1
20260506084100 14 252 3.2 9.7 0.00 1.32 0.10 92 1005.1
20260506083057 13 220 1.6 6.4 0.00 1.32 0.10 95 1004.9
20260506081111 14 270 0.0 6.4 0.00 1.32 0.10 95 1004.8
20260506080107 14 206 3.2 9.7 0.00 1.32 0.10 94 1004.6
20260506073038 13 255 3.2 6.4 0.00 1.32 0.10 96 1004.7
20260506072035 13 219 1.6 6.4 0.00 1.32 0.10 98 1004.6
20260506071032 13 225 1.6 6.4 0.00 1.32 0.10 99 1004.7
20260506062016 12 270 0.0 3.2 0.00 1.32 0.10 99 1004.9
20260506061113 12 0 0.0 3.2 0.00 1.32 0.10 99 1004.8
20260506060110 12 270 0.0 8.0 0.00 1.32 0.10 99 1004.9
20260506051054 11 0.0 1.6 0.00 1.32 0.10 99 1005.0
20260506045048 11 0.0 3.2 0.00 1.32 0.10 99 1005.1
20260506043041 11 217 1.6 4.8 0.03 1.32 0.10 99 1004.9
20260506042038 11 201 1.6 4.8 0.03 1.32 0.10 99 1004.8
20260506041055 10 0.0 3.2 0.03 1.32 0.10 99 1004.9
20260506040111 11 180 0.0 3.2 0.03 1.32 0.10 99 1004.8
20260506035029 11 180 0.0 3.2 0.03 1.32 0.10 99 1004.7
20260506034046 11 180 0.0 4.8 0.00 1.30 0.05 99 1004.8
20260506033022 11 188 1.6 6.4 0.00 1.30 0.05 99 1004.7
20260506032039 11 180 0.0 3.2 0.00 1.30 0.05 99 1004.7
20260506031016 11 180 0.0 3.2 0.00 1.30 0.05 99 1004.7
20260506030113 11 158 0.0 4.8 0.00 1.30 0.05 99 1004.8
20260506023124 11 0.0 0.0 0.00 1.30 0.05 99 1004.8
20260506021057 11 0.0 0.0 0.00 1.32 0.05 99 1004.9
20260506020054 11 0.0 0.0 0.00 1.32 0.05 99 1004.9
20260506015050 11 148 0.0 3.2 0.00 1.32 0.05 99 1004.9
20260506014048 11 0.0 0.0 0.00 1.32 0.05 99 1004.9
20260506013044 11 0.0 1.6 0.00 1.32 0.05 99 1005.0
20260506012041 12 0.0 0.0 0.05 1.32 0.05 99 1005.1
20260506011038 12 180 0.0 3.2 0.05 1.32 0.05 99 1005.2
20260506010037 12 0.0 3.2 0.05 1.32 0.05 99 1005.1
20260506005052 12 243 0.0 4.8 0.05 1.32 0.05 99 1005.2
20260506004029 12 180 1.6 3.2 0.05 1.32 0.05 99 1005.4
20260506003025 12 211 3.2 6.4 0.05 1.32 0.05 99 1005.5
20260506002102 12 270 0.0 3.2 0.00 1.27 0.00 99 1005.6
20260506001019 12 218 1.6 3.2 0.00 1.27 0.00 99 1005.6
20260506000016 12 225 0.0 3.2 0.00 1.27 0.00 99 1005.6
20260505235113 12 180 0.0 4.8 0.00 1.27 0.00 99 1005.7
20260505234109 12 180 0.0 3.2 0.00 1.27 0.00 99 1005.8
20260505233107 12 216 1.6 6.4 0.00 1.27 0.00 99 1005.9
20260505231100 12 233 3.2 4.8 0.00 1.27 0.00 99 1005.7
20260505225054 12 180 0.0 4.8 0.00 1.27 0.00 99 1005.8
20260505222045 11 0.0 3.2 0.00 1.27 0.00 99 1005.7
20260505215055 12 0.0 0.0 0.00 1.27 1.27 99 1005.6
20260505214032 12 180 1.6 4.8 0.00 1.27 1.27 99 1005.7
20260505213029 12 0.0 0.0 0.00 1.27 1.27 99 1005.7
20260505212045 12 0.0 0.0 0.00 1.27 1.27 99 1006.0
20260505211022 12 0.0 0.0 0.00 1.27 1.27 99 1006.1
20260505210019 12 0.0 0.0 0.00 1.27 1.27 99 1006.0
20260505205016 12 0.0 0.0 0.00 1.27 1.27 99 1005.7
20260505204113 12 0.0 0.0 0.00 1.27 1.27 99 1005.7
20260505203110 12 195 0.0 4.8 0.03 1.27 1.27 99 1005.5
20260505202107 12 0.0 3.2 0.03 1.27 1.27 99 1005.4
20260505201104 12 0.0 0.0 0.03 1.27 1.27 99 1005.3
20260505200100 12 0.0 1.6 0.03 1.27 1.27 99 1005.4
20260505195057 12 243 0.0 4.8 0.03 1.27 1.27 99 1005.6
20260505193051 12 0.0 0.0 0.00 1.22 1.22 99 1005.7
20260505192047 12 270 0.0 3.2 0.00 1.22 1.22 99 1005.7
20260505191044 12 0.0 3.2 0.00 1.22 1.22 99 1005.6
20260505184034 12 0.0 0.0 0.03 1.22 1.22 99 1005.3
20260505183031 12 0.0 0.0 0.03 1.22 1.22 99 1005.3
20260505182028 12 180 0.0 3.2 0.03 1.22 1.22 99 1005.2
20260505181025 13 0.0 0.0 0.05 1.22 1.22 99 1005.1
20260505174016 12 0.0 3.2 0.23 1.19 1.19 99 1004.7
20260505172110 13 191 1.6 8.0 1.04 1.19 1.19 99 1004.6
20260505171106 13 274 1.6 6.4 1.14 1.17 1.17 99 1004.9
20260505170103 13 251 3.2 12.9 1.04 1.09 1.09 99 1005.1
20260505165100 13 261 3.2 12.9 0.99 1.02 1.02 99 1005.2
20260505164057 13 306 3.2 8.0 0.94 0.97 0.97 99 1005.3
20260505162050 15 221 4.8 16.1 0.13 0.15 0.15 95 1005.1
20260505161107 16 0.0 0.0 0.00 0.03 0.03 91 1004.2
20260505153035 17 0.0 3.2 0.00 0.03 0.03 87 1004.0
20260505151028 17 0 0.0 4.8 0.00 0.03 0.03 86 1004.0
20260505140106 23 0.0 3.2 0.00 0.03 0.03 57 1004.2
20260505124121 23 338 1.6 6.4 0.00 0.03 0.03 55 1005.1
20260505123038 24 249 0.0 4.8 0.00 0.03 0.03 54 1005.1
20260505122035 25 92 3.2 8.0 0.00 0.03 0.03 52 1005.3
20260505121031 24 113 1.6 4.8 0.00 0.03 0.03 52 1005.3
20260505120028 23 90 1.6 4.8 0.00 0.03 0.03 55 1005.4
20260505114022 23 0 1.6 4.8 0.00 0.03 0.03 59 1005.7
20260505113019 23 175 1.6 6.4 0.00 0.03 0.03 56 1005.7
20260505112016 23 52 1.6 6.4 0.00 0.03 0.03 57 1005.8
20260505111113 23 20 1.6 6.4 0.00 0.03 0.03 58 1006.0
20260505110110 22 37 1.6 4.8 0.00 0.03 0.03 57 1006.0